Location: Mason
(37.5237°N, 89.2543°W)
Time: 07:25:54
(UTC+00:00)

Cosmos 2369 Rocket - Pass Details

Date: 24 January 2021
Orbit: 830 x 851 km, 71.0° (Epoch: 08 March)

Event Time Altitude Azimuth Distance (km) Brightness Sun altitude
Rises 12:35:06 0° 343° (NNW) 3,384 5.0 -6.6°
Reaches altitude 10° 12:37:39 10° 349° (N) 2,445 4.3 -6.1°
Maximum altitude 12:43:04 49° 64° (ENE) 1,063 3.1 -5.1°
Drops below altitude 10° 12:48:26 10° 139° (SE) 2,429 5.8 -4.1°
Sets 12:50:57 0° 144° (SE) 3,359 6.4 -3.6°
